{"data":{"norad_id":55413,"intl_designator":"2023-014Y","name":"STARLINK-5060","alt_names":[],"object_type":"PAYLOAD","status":"ACTIVE","operator":null,"country":"US","launch_date":"2023-01-31","launch_site_code":"AFWTR","launch_vehicle":null,"mission":null,"orbit_class":"UNKNOWN","rcs_meters":null,"size_class":null,"mass_kg":null,"dimensions":null,"purposes":["comms"],"wikipedia_slug":null,"has_3d_model":false,"image_url":null,"decayed_at":null,"tle_current":{"epoch":"2026-09-20T22:00:03.000096Z","epoch_age_seconds":60606,"freshness":"FRESH","line1":"1 55413U 23014Y   26263.91670139  .00095139  00000+0  73315-2 0  9990","line2":"2 55413  70.0007 312.0186 0003862 219.8651  19.5048 15.01071100  5767","mean_motion":15.010711,"eccentricity":0.0003862,"inclination_deg":70.0007,"raan_deg":312.0186,"arg_perigee_deg":219.8651,"mean_anomaly_deg":19.5048,"bstar":0.0073315,"rev_number":576,"period_min":95.931498514627,"perigee_km":560.91127140021,"apogee_km":566.27306300896,"semimajor_km":6941.7291672046,"source":"CELESTRAK","updated_at":"2026-09-21T09:00:33.217770Z"}}}